Weather Roundup
Issued by NWS Chicago, IL

Home | Current Version | Previous Version | Text Only | Print | Product List | Glossary Off
Versions: 1 2 3 4 5 6 7 8 9 10 11 12 13 14 15 16 17 18 19 20 21 22 23 24 25 26 27 28 29 30 31 32 33 34 35 36 37 38 39 40 41 42 43 44 45 46 47 48 49 50

000
NZUS59 KLOT 221708
HRRLOT

CHICAGO AREA WEATHER ROUNDUP
NATIONAL WEATHER SERVICE CHICAGO/ROMEOVILLE IL
1100 AM CST WED FEB 22 2017

NOTE: "FAIR" INDICATES FEW OR NO CLOUDS BELOW 12,000 FEET WITH NO
SIGNIFICANT WEATHER AND/OR OBSTRUCTIONS TO VISIBILITY.

* THESE STATIONS ARE NOT UNDER NWS QUALITY CONTROL. THEY ALSO MAY NOT
  REPORT WEATHER SUCH AS PRECIPITATION OR FOG.

ILZ005-006-012>014-019>023-221800-
NORTHEAST ILLINOIS

CITY           SKY/WX    TMP DP  RH WIND       PRES   REMARKS
OHARE          CLOUDY    58  53  84 SW12      29.76F
MIDWAY         CLOUDY    55  52  89 SW12      29.78F FOG
AURORA         CLOUDY    58  55  90 S15G23    29.77F FOG
LANSING*       CLOUDY    56  55  99 S10       29.80F FOG
JOLIET*        CLOUDY    56  56 100 SW7       29.79F FOG
WAUKEGAN       PTSUNNY   61  54  77 SW23      29.72F
DUPAGE AIRPORT CLOUDY    58  54  86 SW13      29.76F FOG
WHEELING       CLOUDY    59  53  80 S15       29.76F
KANKAKEE*      CLOUDY    55  55  97 CALM      29.81F FOG
MORRIS*        CLOUDY    55  54  98 SW8       29.78F FOG
LEWIS AIRPORT* CLOUDY    53  53 100 SW7       29.79F FOG
NORTHERLY ISL    N/A     55  51  86 SW9         N/A
$$

WIZ051-052-058>065-066-070>072-221800-
SOUTHEAST WISCONSIN

CITY           SKY/WX    TMP DP  RH WIND       PRES   REMARKS
MILWAUKEE      MOSUNNY   61  52  72 SW18      29.69F
KENOSHA*       MOSUNNY   60  54  80 SW16G25   29.71F
RACINE*        PTSUNNY   60  53  77 SW16G25   29.71F
WAUKESHA       SUNNY     57  52  82 SW21G29   29.70S
WEST BEND      SUNNY     61  50  67 SW18      29.65F
$$

INZ001>003-010>013-019-020-221800-
NORTHWEST INDIANA

CITY           SKY/WX    TMP DP  RH WIND       PRES   REMARKS
GARY*          CLOUDY    57  54  88 SW8       29.80F FOG
MICHIGAN CITY* NOT AVBL
RENSSELAER*    NOT AVBL
VALPARAISO     CLOUDY    58  55  90 SW10      29.81F FOG
$$

LMZ740>746-221800-
SOUTHERN LAKE MICHIGAN

STATION/POSITION TIME  SKY/WX   TEMP WIND        PRES    VSBY
                                AIR  DIR/SP/G
                 (UTC)          (F)  (DEG/KT/KT) (MB)    (MI)
HARRISON CRIB    1640            54  200/ 16/ 17   N/A
BURNHAM HARBOR   1700            55  220/ 12       N/A
CALUMET HARBOR   1642            53  200/ 11/ 15 1008.3F
BURNS HARBOR     1640            55  190/ 11/ 15 1009.5F
MICHIGAN CITY    1640            58  160/  9/ 11   N/A
$$

ABBREVIATIONS USED IN REMARKS
   TC - TEMPERATURE IN CELSIUS
  WCI - WIND CHILL INDEX
   HX - HEAT INDEX
  VSB - VISIBILITY
$$



USA.gov is the U.S. government's official web portal to all federal, state and local government web resources and services.